[[{"header":{"parameterUnit":"m.s-1","parameterCategory":1,"la1":30.2991,"la2":30.254,"lo1":-89.0895,"lo2":-89.0444,"dy":0.0017,"dx":0.0017,"nx":28,"ny":28,"refTime":"2025-05-27T03:00:00:Z","depth":0,"parameterNumber":2,"parameterNumberName":"U-component_of_WINDS"},"data":[0,0,0,0,0,0,0,0,0,0,0,0,0,0,0,0,0,0,0,0,0,0,0,0,0,0,0,0,0,0,0,0,0,0,0,0,0,0,0,0,0,0,0,0,0,0,0,0,0,0,0,0,0,0,0,0,0,0,3.0743,3.0743,0,3.0738,3.0738,3.0738,3.0661,3.0659,3.0657,3.0655,3.0649,3.0651,3.0652,0,0,0,0,0,0,0,0,0,0,0,0,0,3.0684,3.0686,3.0743,3.0743,3.0743,3.0738,3.0738,3.0738,3.0661,3.0659,3.0656,3.0654,3.0649,3.0651,3.0653,0,0,0,0,0,0,0,0,0,0,0,0,0,3.0698,3.0686,3.0743,3.0704,3.0701,3.0738,3.0738,3.0738,3.0662,3.0659,3.0656,3.0653,3.0648,3.065,3.0653,3.0727,0,0,3.0661,3.0662,0,0,0,0,0,0,0,0,3.0697,3.07,3.071,3.0707,3.0703,3.0697,3.0715,3.0734,3.0662,3.0677,3.0655,3.0652,3.0667,3.0668,3.0674,3.0727,3.0726,3.0661,3.0662,3.0663,3.0664,0,0,0,0,0,0,0,3.0696,3.07,3.0741,3.071,3.0706,3.0686,3.0685,3.0718,3.0688,3.0675,3.0669,3.067,3.0665,3.0671,3.0673,3.0726,3.0661,3.0663,3.0664,3.0665,3.0836,3.0838,0,0,0,0,0,0,3.0701,3.0699,3.0741,3.0741,3.0693,3.069,3.0688,3.0702,3.0688,3.0683,3.0672,3.0666,3.0669,3.067,3.0672,3.0754,3.0663,3.0666,3.0667,3.0833,3.0836,3.0839,0,0,0,0,0,0,3.07,3.0705,3.0741,3.0719,3.0722,3.0694,3.071,3.0703,3.071,3.0686,3.068,3.0685,3.0666,3.0669,3.0713,3.0753,3.0667,3.0669,3.0829,3.0834,3.0838,3.0922,0,0,0,0,0,0,3.0699,3.0705,3.0734,3.072,3.0723,3.0783,3.0713,3.0705,3.0714,3.0706,3.0696,3.0691,3.0664,3.071,3.0716,3.0755,3.0671,3.0825,3.0831,3.0836,3.0915,3.0929,3.094,0,0,0,0,0,3.0697,3.0759,3.0736,3.0741,3.0758,3.0786,3.0787,3.0755,3.0718,3.0745,3.073,3.0691,3.0749,3.0715,3.0721,3.0762,3.0822,3.0829,3.0836,3.091,3.0926,3.094,0,0,0,0,0,0,3.0779,3.0756,3.0731,3.079,3.079,3.0773,3.0806,3.0774,3.0785,3.0777,3.0737,3.0735,3.0784,3.0778,3.0741,3.0831,3.0779,3.0787,3.0833,3.0848,3.086,3.0859,3.0673,0,0,0,0,0,3.0804,3.0828,3.0807,3.0861,3.0863,3.0835,3.0846,3.0821,3.0819,3.0819,3.0807,3.0806,3.0824,3.0836,3.0851,3.0915,3.0909,3.0946,3.0958,3.0969,3.0975,3.1004,3.1019,3.0862,3.0862,3.0862,0,0,3.0855,3.0846,3.0864,3.0877,3.0875,3.0899,3.0835,3.0865,3.0882,3.0823,3.0863,3.0854,3.0851,3.0904,3.0927,3.09,3.1018,3.0977,3.0986,3.0987,3.1013,3.1028,3.1041,3.0866,3.0866,3.0865,0,0,3.0961,3.0959,3.1001,3.0999,3.0996,3.0976,3.0987,3.0974,3.0965,3.1005,3.096,3.098,3.1012,3.101,3.1014,3.1117,3.1081,3.1124,3.1187,3.1216,3.1229,3.1239,3.1272,3.1285,3.1131,3.1131,3.1132,0,3.1026,3.1061,3.1027,3.1059,3.1064,3.1012,3.1054,3.1054,3.1056,3.106,3.1031,3.1068,3.1062,3.1112,3.1137,3.1144,3.1152,3.1123,3.123,3.124,3.125,3.1281,3.1294,3.1136,3.1136,3.1135,3.1135,0,3.1139,3.1164,3.1199,3.1201,3.1211,3.1248,3.1218,3.1232,3.1207,3.119,3.1229,3.1221,3.1232,3.1243,3.1219,3.1289,3.1272,3.1237,3.1183,3.127,3.1298,3.131,3.1143,3.1141,3.114,3.1139,0,0,3.1295,3.1276,3.1289,3.1287,3.1279,3.1297,3.1331,3.1341,3.1352,3.1356,3.1381,3.1409,3.1375,3.1379,3.1355,3.1381,3.1458,3.1342,3.1341,3.1361,3.1531,3.1554,3.1568,3.1436,3.1438,3.144,3.1529,0,3.1393,3.1449,3.1418,3.1478,3.1499,3.1449,3.1478,3.1475,3.1461,3.1476,3.146,3.1478,3.1435,3.1437,3.1461,3.1444,3.1491,3.1438,3.1456,3.1457,3.1454,3.1584,3.1609,3.1694,3.1541,3.1543,3.1544,0,3.1516,3.1522,3.1583,3.1567,3.1575,3.1602,3.1606,3.1623,3.1618,3.1605,3.1609,3.1578,3.1608,3.1557,3.1597,3.1561,3.1567,3.156,3.1562,3.156,3.1503,3.1581,3.1721,3.1732,3.1562,3.156,3.1559,0,3.1618,3.1642,3.1681,3.1682,3.1666,3.1685,3.1679,3.1671,3.1678,3.1684,3.1687,3.1696,3.17,3.1707,3.1678,3.1645,3.172,3.1668,3.1708,3.1709,3.1723,3.1722,3.1862,3.1735,3.1734,3.1734,3.1734,0,3.1729,3.1767,3.1726,3.1749,3.179,3.1754,3.1795,3.1784,3.1778,3.1797,3.1756,3.1775,3.1737,3.1752,3.173,3.1764,3.1767,3.1756,3.1749,3.1757,3.1758,3.1758,3.175,3.1737,3.1737,3.1736,3.1735,0,3.1848,3.1823,3.1861,3.1842,3.1838,3.1869,3.1852,3.1872,3.1855,3.188,3.1883,3.1856,3.1871,3.1844,3.1856,3.1841,3.1887,3.1873,3.1888,3.1882,3.1922,3.1917,3.2064,3.208,3.1946,3.1947,3.1948,0,3.1919,3.1946,3.193,3.194,3.1936,3.1953,3.1959,3.1925,3.1934,3.1929,3.1949,3.1961,3.1967,3.1994,3.1974,3.1983,3.1966,3.2017,3.1967,3.1973,3.1962,3.1959,3.196,3.2026,3.2028,3.2029,3.203,0,3.2045,3.203,3.2041,3.2047,3.2055,3.2059,3.2059,3.2069,3.2033,3.2044,3.2059,3.2064,3.2075,3.2086,3.209,3.2083,3.205,3.2046,3.2055,3.2062,3.2068,3.2061,3.1912,3.2042,3.2041,3.204,3.2039,3.2039,3.2139,3.216,3.2151,3.2163,3.216,3.216,3.2177,3.2161,3.2173,3.2178,3.2158,3.2176,3.2169,3.217,3.2167,3.218,3.2157,3.2171,3.2174,3.2177,3.2181,3.2069,3.2181,3.2181,3.218,3.218,3.218,0,3.2259,3.225,3.2262,3.2263,3.2272,3.2241,3.2239,3.2249,3.2265,3.2261,3.2268,3.2283,3.2294,3.2275,3.2282,3.2296,3.228,3.2298,3.2295,3.2293,3.2203,3.2193,3.231,3.231,3.231,3.231,3.231,3.231,3.2322,3.2354,3.2339,3.2368,3.2359,3.2376,3.2377,3.2377,3.2373,3.2391,3.2399,3.2387,3.2376,3.2382,3.2389,3.2383,3.2386,3.2408,3.2397,3.2313,3.23,3.2287,3.2277,3.241,3.241,3.2485,3.2485,3.2486]},{"header":{"parameterUnit":"m.s-1","parameterCategory":1,"la1":30.2991,"la2":30.254,"lo1":-89.0895,"lo2":-89.0444,"dy":0.0017,"dx":0.0017,"nx":28,"ny":28,"refTime":"2025-05-27T03:00:00:Z","depth":0,"parameterNumber":3,"parameterNumberName":"V-component_of_WINDS"},"data":[0,0,0,0,0,0,0,0,0,0,0,0,0,0,0,0,0,0,0,0,0,0,0,0,0,0,0,0,0,0,0,0,0,0,0,0,0,0,0,0,0,0,0,0,0,0,0,0,0,0,0,0,0,0,0,0,0,0,3.9128,3.9129,0,3.9218,3.9219,3.922,3.9181,3.9178,3.9176,3.9174,3.9263,3.9267,3.9272,0,0,0,0,0,0,0,0,0,0,0,0,0,3.8915,3.8919,3.9128,3.9129,3.913,3.9218,3.9219,3.9221,3.9181,3.9178,3.9176,3.9173,3.9261,3.9267,3.9272,0,0,0,0,0,0,0,0,0,0,0,0,0,3.9007,3.8921,3.9128,3.9121,3.9121,3.9218,3.922,3.9221,3.9181,3.9178,3.9175,3.9172,3.926,3.9266,3.9273,3.938,0,0,3.9293,3.9296,0,0,0,0,0,0,0,0,3.9002,3.9015,3.9121,3.9122,3.9122,3.9185,3.9177,3.9274,3.9182,3.9159,3.9174,3.917,3.9239,3.9247,3.9272,3.9384,3.9388,3.9294,3.9298,3.93,3.9302,0,0,0,0,0,0,0,3.8995,3.901,3.9163,3.9122,3.9123,3.9112,3.9121,3.9195,3.9216,3.916,3.9158,3.9169,3.9239,3.9265,3.9273,3.9389,3.9293,3.9299,3.9303,3.9306,3.9592,3.9595,0,0,0,0,0,0,3.899,3.9005,3.9161,3.9166,3.9053,3.9118,3.9129,3.9168,3.9215,3.922,3.9172,3.9167,3.9256,3.9266,3.9276,3.9404,3.93,3.9307,3.931,3.9588,3.9593,3.9597,0,0,0,0,0,0,3.8985,3.9004,3.9157,3.9085,3.9104,3.9125,3.917,3.9172,3.9198,3.9224,3.9227,3.9195,3.9253,3.9267,3.9354,3.9406,3.931,3.9316,3.9584,3.959,3.9595,3.966,0,0,0,0,0,0,3.8979,3.9003,3.9045,3.9086,3.9108,3.9235,3.9173,3.9176,3.921,3.9204,3.9247,3.9251,3.9252,3.9345,3.9361,3.9414,3.9321,3.958,3.9587,3.9593,3.9654,3.9667,3.9679,0,0,0,0,0,3.8972,3.906,3.9047,3.9066,3.9162,3.9238,3.925,3.9251,3.9214,3.9256,3.9273,3.9249,3.9398,3.9354,3.9372,3.9428,3.9576,3.9585,3.9593,3.9648,3.9665,3.9679,0,0,0,0,0,0,3.9023,3.9065,3.9052,3.9156,3.9194,3.9232,3.9285,3.9269,3.9317,3.931,3.9307,3.9317,3.9407,3.9426,3.9376,3.9533,3.9481,3.9493,3.9517,3.9533,3.9546,3.9539,3.9326,0,0,0,0,0,3.9046,3.9107,3.914,3.9228,3.9248,3.9263,3.9297,3.9294,3.9332,3.9348,3.9371,3.9408,3.9463,3.9499,3.9551,3.9656,3.9664,3.9703,3.9716,3.9726,3.9736,3.9791,3.9808,3.9623,3.9623,3.9623,0,0,3.9095,3.9126,3.9164,3.9239,3.9268,3.9329,3.9277,3.9344,3.9388,3.9358,3.9442,3.946,3.9501,3.9597,3.964,3.9615,3.9789,3.9736,3.9744,3.9749,3.9801,3.9819,3.9834,3.9629,3.9628,3.9627,0,0,3.9215,3.9245,3.9321,3.9351,3.9396,3.9406,3.9424,3.9464,3.9475,3.9559,3.9537,3.9589,3.9684,3.9714,3.9741,3.987,3.985,3.9887,3.9954,4.0007,4.0021,4.0034,4.0079,4.0095,3.9897,3.9898,3.9898,0,3.927,3.9362,3.9362,3.9431,3.9463,3.9439,3.9515,3.9544,3.9603,3.9625,3.9597,3.9714,3.9741,3.9842,3.9874,3.9897,3.9916,3.9882,4.002,4.0033,4.0044,4.0087,4.0104,3.9902,3.9901,3.9901,3.99,0,3.9426,3.9491,3.9546,3.9605,3.9644,3.9716,3.9725,3.9764,3.9757,3.9769,3.9853,3.9884,3.9941,3.9965,3.9958,4.0065,4.0048,4.002,3.9968,4.0066,4.0106,4.0122,3.9908,3.9906,3.9905,3.9904,0,0,3.9582,3.9639,3.9659,3.9685,3.9732,3.978,3.985,3.9906,3.9939,3.998,4.0037,4.0118,4.0091,4.0123,4.0119,4.0166,4.0264,4.0132,4.0133,4.0154,4.0381,4.0402,4.0421,4.0251,4.0254,4.0257,4.0378,0,3.9704,3.9828,3.9829,3.9942,4.0,3.9977,4.0037,4.0072,4.0084,4.0133,4.0146,4.0202,4.0164,4.0183,4.0228,4.0243,4.031,4.0234,4.0303,4.0305,4.0293,4.0442,4.0464,4.0577,4.0393,4.0396,4.0398,0,3.9865,3.9911,4.0031,4.0067,4.0092,4.0146,4.0197,4.0245,4.0283,4.0288,4.0322,4.0311,4.038,4.0326,4.042,4.0368,4.0396,4.0407,4.0411,4.0417,4.0357,4.0451,4.0613,4.063,4.0423,4.0421,4.0419,0,3.9964,4.0057,4.014,4.0162,4.0208,4.0246,4.0267,4.0301,4.0334,4.0378,4.0399,4.045,4.0478,4.0517,4.0519,4.048,4.0612,4.0559,4.0617,4.0617,4.0646,4.0644,4.0814,4.0665,4.0665,4.0665,4.0664,0,4.0101,4.0174,4.0185,4.0236,4.0317,4.0316,4.0396,4.0412,4.0443,4.0495,4.0477,4.0526,4.0527,4.0576,4.0578,4.0654,4.0667,4.0671,4.0671,4.0673,4.0672,4.069,4.0682,4.0669,4.0668,4.0667,4.0667,0,4.0226,4.0237,4.0325,4.0361,4.0371,4.0429,4.0459,4.0506,4.0516,4.0582,4.0597,4.0613,4.067,4.0676,4.0742,4.0743,4.0834,4.0826,4.0822,4.0821,4.0878,4.0872,4.1065,4.1089,4.0925,4.0927,4.0928,0,4.0312,4.0368,4.041,4.0444,4.0467,4.0522,4.0556,4.0557,4.0592,4.0638,4.0679,4.0735,4.0779,4.0871,4.0887,4.0937,4.0929,4.0993,4.0936,4.0935,4.0928,4.0925,4.0929,4.1004,4.1005,4.1007,4.1008,0,4.0463,4.0465,4.0516,4.0568,4.0609,4.0649,4.0687,4.0716,4.0721,4.0761,4.082,4.0854,4.0922,4.0976,4.1025,4.1044,4.1026,4.1026,4.1041,4.1044,4.1039,4.1041,4.0851,4.1021,4.102,4.1019,4.1018,4.1018,4.0571,4.0619,4.0655,4.0711,4.074,4.0775,4.0821,4.0837,4.0886,4.0942,4.0939,4.1003,4.1036,4.11,4.1123,4.1171,4.115,4.1173,4.1179,4.1184,4.119,4.1032,4.118,4.118,4.118,4.1179,4.1179,0,4.072,4.0742,4.0794,4.0847,4.0891,4.0872,4.0912,4.0949,4.1006,4.104,4.1084,4.115,4.1202,4.1222,4.1273,4.1308,4.1301,4.1321,4.1318,4.1322,4.1207,4.1188,4.1326,4.1326,4.1326,4.1325,4.1325,4.1325,4.0803,4.0882,4.0888,4.0981,4.1002,4.1066,4.109,4.1122,4.1149,4.1224,4.1268,4.1281,4.1308,4.136,4.1406,4.1411,4.1429,4.1453,4.1454,4.1345,4.133,4.1316,4.1298,4.1457,4.1457,4.1565,4.1566,4.1566]}]]